St. Joseph, KS

11:46 PM CST on November 16, 2019 (GMT -0600)
Rosecrans Memorial

Weather History for KSTJ - September, 2019

Change the Weather History Date:

Wednesday, September 25, 2019

  Actual Average Record
Temperature  
Mean Temperature 72 °F 63 °F  
Max Temperature 83 °F 76 °F 92 °F (1972)
Min Temperature 61 °F 50 °F 33 °F (1989)
Degree Days  
Heating Degree Days 0 5  
Month to date heating degree days 0 49  
Since 1 July heating degree days 0 54  
Cooling Degree Days 7 2  
Month to date cooling degree days 266 110  
Year to date cooling degree days 1410 1187  
Growing Degree Days 23 (Base 50)    
Moisture  
Dew Point 61 °F    
Average Humidity 65    
Maximum Humidity 93    
Minimum Humidity 37    
Precipitation  
Precipitation 0.23 in 0.09 in 2.49 in (1976)
Month to date precipitation 3.47 2.98  
Year to date precipitation 32.74 29.28  
Sea Level Pressure  
Sea Level Pressure 29.82 in    
Wind  
Wind Speed 7 mph (North)    
Max Wind Speed 20 mph    
Max Gust Speed 30 mph    
Visibility 8 miles    
Events Rain , Thunderstorm    
T = Trace of Precipitation, MM = Missing Value Source: NWS Daily Summary

Daily Weather History Graph

Daily Weather History Graph

Search for Another Location

Airport or City:

Astronomy

Sep. 25, 2019 Rise Set
Actual Time 7:09 AM CDT 7:12 PM CDT
Civil Twilight 6:43 AM CDT 7:38 PM CDT
Nautical Twilight 6:11 AM CDT 8:10 PM CDT
Astronomical Twilight 5:39 AM CDT 8:42 PM CDT
Moon 3:05 AM CDT (9/25) 5:44 PM CDT (9/25)
Length of Visible Light 12h 55m
Length of Day
12h 02m
Waning Crescent, 14% of the Moon is Illuminated
Sep 25
Waning Crescent
Sep 28
New
Oct 5
First Quarter
Oct 13
Full
Oct 21
Last Quarter

Hourly Weather History & Observations

Time (CDT) Temp. Heat Index Dew Point Humidity Pressure Visibility Wind Dir Wind Speed Gust Speed Precip Events Conditions
12:53 AM 73.9 °F - 70.0 °F 87% 29.72 in 10.0 mi SSW 5.8 mph - N/A   Overcast
1:53 AM 73.0 °F - 70.0 °F 90% 29.71 in 10.0 mi South 5.8 mph - N/A   Overcast
2:31 AM 73.0 °F - 70.0 °F 90% 29.74 in 2.5 mi SW 9.2 mph - 0.08 in Rain Rain
2:34 AM 73.0 °F - 70.0 °F 90% 29.75 in 1.5 mi SW 9.2 mph - 0.12 in Rain , Thunderstorm Heavy Rain
2:42 AM 73.0 °F - 71.1 °F 93% 29.75 in 3.0 mi SW 19.6 mph 29.9 mph 0.13 in Rain , Thunderstorm Light Rain
2:50 AM 71.6 °F - 69.8 °F 94% 29.77 in 2.5 mi NW 8.1 mph 29.9 mph 0.19 in Rain , Thunderstorm Heavy Rain
2:53 AM 73.0 °F - 70.0 °F 90% 29.74 in 2.0 mi WNW 4.6 mph - 0.21 in Rain , Thunderstorm Light Rain
3:04 AM 72.0 °F - 70.0 °F 93% 29.75 in 5.0 mi North 5.8 mph - 0.02 in Rain Light Rain
3:07 AM 72.0 °F - 70.0 °F 93% 29.75 in 10.0 mi NNE 4.6 mph - 0.02 in Rain , Thunderstorm Light Rain
3:19 AM 71.1 °F - 69.1 °F 93% 29.75 in 10.0 mi Calm Calm - 0.02 in Thunderstorm Scattered Clouds
3:26 AM 70.0 °F - 69.1 °F 97% 29.75 in 10.0 mi SSE 3.5 mph - 0.02 in   Partly Cloudy
3:53 AM 70.0 °F - 68.0 °F 93% 29.72 in 9.0 mi West 3.5 mph - 0.02 in   Partly Cloudy
5:53 AM 68.0 °F - 66.0 °F 93% 29.76 in 9.0 mi North 8.1 mph - N/A   Clear
6:53 AM 66.0 °F - 63.0 °F 90% 29.78 in 10.0 mi North 6.9 mph - N/A   Clear
7:53 AM 64.0 °F - 61.0 °F 90% 29.81 in 10.0 mi NE 3.5 mph - N/A   Clear
8:53 AM 68.0 °F - 62.1 °F 81% 29.83 in 10.0 mi NNE 8.1 mph - N/A   Clear
9:53 AM 72.0 °F - 61.0 °F 68% 29.84 in 10.0 mi NNE 6.9 mph - N/A   Clear
10:53 AM 77.0 °F - 59.0 °F 54% 29.85 in 10.0 mi North 6.9 mph - N/A   Clear
11:53 AM 80.1 °F 80.4 °F 57.0 °F 45% 29.87 in 10.0 mi North - - N/A   Clear
12:53 PM 82.0 °F 81.2 °F 53.1 °F 37% 29.87 in 10.0 mi North 10.4 mph - N/A   Clear
1:53 PM 82.0 °F 81.3 °F 54.0 °F 38% 29.85 in 10.0 mi Variable 3.5 mph - N/A   Clear
2:53 PM 82.0 °F 81.3 °F 54.0 °F 38% 29.84 in 10.0 mi North 8.1 mph - N/A   Clear
3:53 PM 82.9 °F 81.9 °F 54.0 °F 37% 29.84 in 10.0 mi NNE 11.5 mph 17.3 mph N/A   Clear
4:53 PM 81.0 °F 80.4 °F 53.1 °F 38% 29.85 in 10.0 mi NNW 10.4 mph - N/A   Clear
5:53 PM 77.0 °F - 52.0 °F 42% 29.87 in 10.0 mi NNE 9.2 mph - N/A   Overcast
6:53 PM 71.1 °F - 54.0 °F 55% 29.89 in 10.0 mi North 8.1 mph - N/A   Clear
7:53 PM 69.1 °F - 55.0 °F 61% 29.92 in 10.0 mi North 8.1 mph - N/A   Overcast
8:53 PM 68.0 °F - 53.1 °F 59% 29.96 in 10.0 mi North 9.2 mph - N/A   Overcast
9:53 PM 66.0 °F - 50.0 °F 56% 29.99 in 10.0 mi North 8.1 mph - N/A   Overcast
10:53 PM 64.0 °F - 48.9 °F 58% 29.99 in 10.0 mi North 9.2 mph - N/A   Mostly Cloudy
11:53 PM 62.1 °F - 50.0 °F 65% 29.99 in 10.0 mi North 6.9 mph - N/A   Mostly Cloudy